SCP
-0 -0 0 0 0 0 0 0 0 0 0 0 0 0 0 0 0 0 0 0 0 0 0 0 0 0 0 0 0 0 0 0 0 0 0 0 0 0 0 0 0 0 0
0 0 0 0 0 0 0 0 0 0 0 0 0 0 0 0 0 0 0 0 0 0 0 0 0 0 0 0 0 0 0 0 0 0 0 0 0 0 0 0 0 0 0
0 0 0 0 0 0 0 0 0 0 0 0 0 0 0 0 0 0 0 0 0 0 0 0 0 0 0 0 0 0 0 0 -0 0 0 0 0 0 0 0 0 0 0
0 0 0 0 0 0 0 0 0 0 0 0 0 0 0 0 0 0 0 0 0 0 0 0 0 0 0 0 0 0 0 0 0 -0 -0 0 0 0 0 0 0 0 0
0 0 0 0 0 0 0 0 0 0 0 0 0 0 0 0 0 0 0 0 0 0 0 0 0 0 0 0 0 0 0 0 0 0 0 0 0 0 0 0 0 0 0
0 0 0 0 0 0 0 0 0 0 0 0 0 0 0 0 0 0 0 0 0 0 0 0 0 0 0 0 0 0 0 0 0 0 0 0 0 0 0 0 0 0 0
0 0 0 0 0 0 0 0 0 0 0 0 0 0 0 0 0 0 0 0 0 0 0 0 0 0 0 0 0 0 0 0 0 0 0 0 0 0 0 0 0 0 0
0 0 0 0 0 0 0 0 0 0 0 0 0 0 0 0 0 0 0 0 0 0 0 0 0 0 0 0 0 0 0 0 0 0 0 0 0 0 0 0 0 0 0
0 0 0 0 0 0 0 0 0 0 0 0 0 0 0 0 0 0 0 0 0 0 0 0 0 0 0 0 0 0 0 0 0 0 0 0 0 0 0 0 0 0 0
0 0 0 0 0 0 0 0 0 0 0 0 0 0 0 0 0 0 0 0 0 0 0 0 0 0 0 0 0 0 0 0 0 0 0 0 0 0 0 0 0 0 0
0 0 0 0 0 0 0 0 0 0 0 0 0 0 0 0 0 0 0 0 0 0 0 0 0 0 0 0 0 0 0 0 0 0 0 0 0 0 0 0 0 0 0
0 0 0 0 0 0 0 0 0 0 0 0 0 0 0 0 0 0 0 0 0 0 0 0 0 0 0 0 0 0 0 0 0 0 0 0 0 0 0 0 0 0 0
0 0 0 0 0 0 0 0 0 0 0 0 0 0 0 0 0 0 0 0 0 0 0 0 0 0 0 0 0 0 0 0 0 0 0 0 0 0 0 0 0 0 0
0 0 0 0 0 0 0 0 0 0 0 0 0 0 0 0 0 0 0 0 0 0 0 0 0 0 0 0 0 0 0 0 0 0 0 0 0 0 0 0 0 0 0
0 0 0 0 0 0 0 0 0 0 0 0 0 0 0 0 0 0 0 0 0 0 0 0 0 0 0 0 0 0 0 0 0 0 0 0 0 0 0 0 0 0 0
0 0 0 0 0 0 0 0 0 0 0 0 0 0 0 0 0 0 0 0 0 0 0 0 0 0 0 0 0 0 0 0 -0 0 0 0 0 0 0 0 0 0 0
0 0 0 0 0 0 0 0 0 0 0 0 0 0 0 0 0 0 0 0 0 0 0 0 0 0 0 0 0 0 0 0 0 -0 -0 -0 0 0 0 0 0 0 0
0 0 0 0 0 0 0 0 0 0 0 0 0 0 0 0 0 0 0 0 0 0 0 0 0 0 0 0 0 0 0 0 0 -0 -0 0 0 0 0 0 0 0 0
0 0 0 0 0 0 0 0 0 0 0 0 0 0 0 0 0 0 0 0 0 0 0 0 0 0 0 0 0 0 0 0 0 0 -0 0 0 0 0 0 0 0 0
0 0 0 0 0 0 0 0 0 0 0 0 0 0 0 0 0 0 0 0 0 0 0 0 0 0 0 0 0 0 0 0 0 0 0 0 0 0 0 0 0 0 0
0 0 0 0 0 0 0 0 0 0 0 0 0 0 0 0 0 0 0 0 0 0 0 0 0 0 0 0 0 0 0 0 0 0 0 0 0 0 0 0 0 0 0
0 0 0 0 0 0 0 0 0 0 0 0 0 0 0 0 0 0 0 0 0 0 0 0 0 0 0 0 0 0 0 0 0 0 0 0 0 0 0 0 0 0 0
0 0 0 0 0 0 0 0 0 0 0 0 0 0 0 0 0 0 0 0 0 0 0 0 0 0 0 0 0 0 0 0 0 0 0 0 0 0 0 0 0 0 0
0 0 0 0 0 0 0 0 0 0 0 0 0 0 0 0 0 0 0 0 0 0 0 0 0 0 0 0 0 0 0 0 0 0 0 0 0 0 0 0 0 0 0
0 0 0 0 0 0 0 0 0 0 0 0 0 0 0 0 0 0 0 0 0 0 0 0 0 0 0 0 0 0 0 0 0 0 0 0 0 0 0 0 0 0 0
0 0 0 0 0 0 0 0 0 0 0 0 0 0 0 0 0 0 0 0 0 0 0 0 0 0 0 0 0 0 0 0 0 0 0 0 0 0 0 0 0 0 0
Wind_Speed_500mb
9 8 8 7 5 4 4 3 3 5 7 8 8 10 11 11 14 16 18 21 24 27 30 32 33 34 31 34 40 44 46 47 48 47 43 37 36 36 39 39 41 42 42
8 6 5 5 4 3 2 0 1 4 5 5 5 7 9 11 14 18 20 21 26 29 31 33 33 35 36 37 34 35 38 43 45 51 54 53 51 50 51 52 51 50 49
13 11 9 7 7 6 5 5 4 4 4 4 5 6 9 13 18 23 25 28 32 33 32 34 34 33 39 40 41 42 37 37 40 46 48 52 62 68 64 65 63 67 61
20 17 15 14 14 12 11 10 8 8 8 9 11 12 15 17 20 24 29 34 33 32 30 28 35 35 36 39 41 42 44 44 43 43 47 53 52 56 56 66 67 77 73
20 20 18 18 18 17 15 12 11 10 10 12 14 14 14 14 21 26 30 30 25 27 31 33 34 37 38 41 40 41 40 40 41 42 44 50 53 55 58 58 61 60 73
22 22 19 18 19 19 14 12 10 11 17 21 23 22 23 21 26 20 21 26 30 26 30 35 36 36 40 42 42 41 40 43 46 48 51 55 56 58 58 61 64 66 62
29 27 23 21 16 12 12 14 17 17 21 25 31 33 30 28 25 15 24 31 28 26 35 33 37 39 40 44 44 42 43 47 48 49 50 52 62 63 65 67 65 68 71
35 31 29 26 25 22 22 20 21 23 28 29 28 30 23 34 13 33 34 36 30 34 36 37 50 42 44 44 42 40 41 44 47 51 52 54 56 59 60 59 65 76 69
38 35 35 34 32 29 28 27 29 30 34 34 30 21 13 8 39 37 42 29 32 37 42 47 41 38 37 36 38 38 40 46 52 57 60 59 62 65 67 70 73 75 75
40 43 41 37 36 35 36 34 40 37 31 24 22 26 26 25 20 16 35 53 43 48 43 42 39 39 42 42 42 44 48 59 63 66 67 68 67 68 70 70 66 67 67
32 41 43 43 40 42 40 40 37 30 26 26 27 32 33 30 27 29 31 32 47 40 36 35 38 46 47 42 52 64 66 67 71 71 74 76 76 78 79 74 69 67 68
24 27 32 37 41 39 40 37 31 26 24 25 28 28 25 25 27 23 31 38 36 34 27 22 37 36 39 46 62 66 69 70 73 75 75 76 77 78 80 80 76 74 71
39 36 33 33 35 35 35 32 29 26 24 27 28 22 23 25 26 34 36 36 39 39 33 41 35 36 47 59 63 65 65 66 67 70 72 74 75 76 76 76 76 73 74
44 43 40 33 34 34 31 29 25 25 28 27 27 23 22 25 25 25 29 36 40 36 34 24 28 46 57 56 56 55 56 57 59 61 63 66 69 72 74 76 75 76 75
49 43 39 33 35 47 33 28 27 28 27 25 21 19 17 16 20 23 26 31 36 32 35 29 36 52 56 59 62 66 67 69 68 65 66 68 70 67 67 68 69 66 64
53 46 38 38 38 30 28 29 30 30 25 20 15 11 12 13 16 20 26 32 36 38 30 42 51 59 62 63 65 67 68 69 67 67 70 72 67 66 70 69 67 70 69
54 48 42 40 40 37 34 33 30 24 19 14 12 11 13 14 17 22 26 31 34 37 41 44 50 55 60 67 70 73 75 78 77 77 79 67 65 77 73 69 67 65 63
55 55 48 45 43 38 35 30 25 21 16 15 12 12 14 16 20 23 25 26 30 37 42 47 51 56 62 67 72 77 78 79 80 80 76 72 78 72 64 60 64 65 70
56 50 48 42 43 39 35 32 26 20 16 12 12 13 16 19 19 20 22 24 28 33 39 46 52 57 61 67 73 76 80 80 78 81 75 80 74 64 56 59 62 64 63
55 49 48 46 43 40 36 29 22 16 15 13 14 15 17 16 16 16 18 23 28 33 40 46 52 57 62 65 69 77 84 81 83 74 76 76 72 61 61 60 59 60 64
51 51 52 50 45 39 32 25 19 16 16 15 14 15 14 14 12 14 18 24 31 37 42 47 51 55 58 64 68 73 77 83 85 75 82 79 75 68 59 54 53 61 55
56 55 51 45 41 36 29 22 18 18 16 14 14 14 12 9 12 16 22 29 35 38 43 45 46 47 51 55 61 67 69 75 85 75 80 77 68 62 50 41 57 53 48
60 56 50 45 39 32 26 21 18 17 15 15 14 12 10 12 15 20 27 34 37 39 41 42 41 41 47 50 58 63 61 61 63 66 66 71 63 53 37 48 55 50 42
57 53 48 42 35 29 24 19 17 16 17 16 15 13 12 14 18 25 29 31 33 37 39 39 39 40 42 46 47 52 55 58 59 60 58 54 54 49 37 42 49 52 48
56 50 43 38 34 28 23 18 18 20 20 18 18 16 13 15 20 23 26 29 33 35 39 43 43 40 39 40 42 46 47 51 58 58 47 46 48 52 41 39 49 50 47
50 47 43 39 33 26 18 19 24 24 24 22 19 16 16 19 21 25 28 31 34 36 39 43 45 45 39 38 38 38 41 42 45 51 42 52 43 42 39 36 46 49 41
Wind_Direction_500mb
148 141 132 130 124 118 113 121 83 38 40 43 55 61 60 48 34 22 14 8 4 0 354 348 344 340 337 333 334 331 332 331 329 329 329 327 325 325 323 320 319 315 310
199 189 179 169 176 186 181 166 39 24 33 38 37 35 25 10 3 357 353 351 345 342 340 336 333 332 331 327 321 316 313 312 311 311 314 317 314 314 316 314 314 309 313
228 228 230 229 236 243 250 268 291 306 329 345 346 345 345 343 339 337 334 334 332 331 328 328 330 327 326 322 318 316 311 302 299 301 303 304 305 299 299 309 304 301 300
234 238 241 243 247 254 261 268 277 288 299 307 308 314 316 326 335 333 328 328 327 330 330 331 331 327 329 322 318 316 311 311 303 303 297 302 300 296 295 299 296 288 296
237 240 245 247 248 255 263 273 286 301 313 307 305 305 308 314 316 309 318 327 332 335 328 323 328 322 326 326 323 314 309 310 311 307 304 297 301 302 301 298 298 296 300
241 250 255 256 257 256 258 275 292 310 313 314 309 309 300 297 308 327 329 345 321 323 320 320 325 326 332 324 318 316 309 307 303 299 298 295 293 292 294 294 294 294 295
243 249 252 260 262 267 268 274 286 292 297 303 301 293 293 304 310 321 325 325 320 327 330 326 329 325 323 319 317 312 310 308 306 303 300 295 292 293 290 290 297 297 295
246 248 252 256 261 263 267 273 277 282 286 289 296 319 323 317 311 320 318 324 319 325 330 324 326 319 321 323 323 319 314 313 309 305 302 300 300 298 297 299 297 296 296
248 250 253 257 262 262 262 264 267 265 271 285 282 292 308 277 308 319 316 316 318 320 328 332 340 334 337 334 331 329 323 323 323 322 319 314 306 303 299 295 293 294 294
242 250 252 254 256 255 258 261 263 275 272 281 281 281 289 293 296 298 299 310 311 330 348 351 348 341 337 338 342 340 332 328 327 325 322 320 314 308 303 304 307 302 304
247 243 246 247 249 253 257 261 264 263 277 282 290 289 285 290 285 296 310 307 316 340 348 344 337 333 334 339 338 332 331 328 324 322 320 318 316 313 310 312 313 310 304
235 232 241 245 249 250 257 258 258 265 271 281 279 271 274 277 288 296 304 311 317 342 346 338 332 337 339 330 329 326 324 323 322 321 319 317 314 312 311 311 310 308 306
239 246 251 252 252 246 249 250 254 258 265 263 259 260 272 287 292 300 307 316 327 336 341 342 342 340 336 328 324 324 325 325 323 323 323 322 321 318 316 314 312 311 308
241 241 249 247 247 241 236 237 240 248 250 246 275 260 279 292 297 307 319 326 330 333 340 338 335 333 327 332 333 332 332 333 334 333 330 327 325 325 321 318 316 315 312
236 238 245 249 241 241 229 232 245 241 236 249 262 266 275 291 303 314 319 328 335 334 334 328 321 331 340 343 345 346 347 346 348 345 338 335 333 329 324 321 320 322 318
232 235 236 239 229 225 236 237 225 231 240 238 245 257 273 286 297 313 326 329 329 330 330 329 336 342 347 348 348 348 350 348 352 348 341 343 343 337 333 329 323 319 320
224 226 229 227 231 232 227 225 228 218 213 221 233 254 273 292 313 321 325 326 328 330 333 340 344 345 348 347 348 349 351 350 351 347 344 351 346 342 338 330 326 325 325
217 222 225 224 230 217 219 215 206 201 204 222 241 264 291 309 316 322 328 331 336 340 342 343 346 347 348 347 347 346 348 348 349 348 346 350 342 345 341 336 331 326 324
209 211 220 217 205 202 198 193 192 203 216 234 265 285 299 309 321 330 336 343 344 344 342 342 344 346 347 348 345 345 346 346 349 345 348 347 345 346 343 335 331 330 329
207 210 203 197 193 188 187 191 195 214 236 257 276 293 305 315 325 336 345 346 343 341 341 341 342 343 345 345 342 341 342 345 346 345 347 346 348 349 343 338 339 343 344
205 198 194 188 186 185 189 196 211 229 246 264 280 294 301 307 321 338 339 337 339 340 339 338 340 340 341 340 341 340 340 340 343 348 344 348 347 351 347 347 349 350 351
193 192 188 188 186 190 194 205 221 238 252 270 284 293 289 299 313 324 329 332 334 337 337 336 335 334 336 337 335 335 337 339 340 344 341 345 349 357 353 1 354 353 355
190 188 187 189 192 197 202 213 227 240 263 276 279 270 274 297 308 320 329 330 335 337 336 335 329 332 330 331 328 329 332 332 332 337 340 340 349 2 358 358 356 352 350
191 191 191 192 196 203 214 221 238 257 265 264 255 250 267 291 315 324 329 331 335 338 336 334 330 329 326 325 321 320 327 324 327 334 338 333 348 352 354 355 357 359 351
194 195 194 198 203 211 216 227 254 261 255 246 237 244 270 301 314 319 326 329 334 335 335 335 335 331 331 330 326 320 322 322 323 328 333 329 344 337 355 355 356 356 358
197 198 200 201 207 212 228 246 256 252 246 237 241 258 278 297 309 321 325 327 333 334 332 334 331 332 328 323 319 316 316 315 318 321 322 322 332 344 338 345 352 354 1
Wind_Speed_850mb
9 8 8 7 5 4 4 3 3 5 7 8 8 10 11 11 14 16 18 21 24 27 30 32 33 34 31 34 40 44 46 47 48 47 43 37 36 36 39 39 41 42 42
8 6 5 5 4 3 2 0 1 4 5 5 5 7 9 11 14 18 20 21 26 29 31 33 33 35 36 37 34 35 38 43 45 51 54 53 51 50 51 52 51 50 49
13 11 9 7 7 6 5 5 4 4 4 4 5 6 9 13 18 23 25 28 32 33 32 34 34 33 39 40 41 42 37 37 40 46 48 52 62 68 64 65 63 67 61
20 17 15 14 14 12 11 10 8 8 8 9 11 12 15 17 20 24 29 34 33 32 30 28 35 35 36 39 41 42 44 44 43 43 47 53 52 56 56 66 67 77 73
20 20 18 18 18 17 15 12 11 10 10 12 14 14 14 14 21 26 30 30 25 27 31 33 34 37 38 41 40 41 40 40 41 42 44 50 53 55 58 58 61 60 73
22 22 19 18 19 19 14 12 10 11 17 21 23 22 23 21 26 20 21 26 30 26 30 35 36 36 40 42 42 41 40 43 46 48 51 55 56 58 58 61 64 66 62
29 27 23 21 16 12 12 14 17 17 21 25 31 33 30 28 25 15 24 31 28 26 35 33 37 39 40 44 44 42 43 47 48 49 50 52 62 63 65 67 65 68 71
35 31 29 26 25 22 22 20 21 23 28 29 28 30 23 34 13 33 34 36 30 34 36 37 50 42 44 44 42 40 41 44 47 51 52 54 56 59 60 59 65 76 69
38 35 35 34 32 29 28 27 29 30 34 34 30 21 13 8 39 37 42 29 32 37 42 47 41 38 37 36 38 38 40 46 52 57 60 59 62 65 67 70 73 75 75
40 43 41 37 36 35 36 34 40 37 31 24 22 26 26 25 20 16 35 53 43 48 43 42 39 39 42 42 42 44 48 59 63 66 67 68 67 68 70 70 66 67 67
32 41 43 43 40 42 40 40 37 30 26 26 27 32 33 30 27 29 31 32 47 40 36 35 38 46 47 42 52 64 66 67 71 71 74 76 76 78 79 74 69 67 68
24 27 32 37 41 39 40 37 31 26 24 25 28 28 25 25 27 23 31 38 36 34 27 22 37 36 39 46 62 66 69 70 73 75 75 76 77 78 80 80 76 74 71
39 36 33 33 35 35 35 32 29 26 24 27 28 22 23 25 26 34 36 36 39 39 33 41 35 36 47 59 63 65 65 66 67 70 72 74 75 76 76 76 76 73 74
44 43 40 33 34 34 31 29 25 25 28 27 27 23 22 25 25 25 29 36 40 36 34 24 28 46 57 56 56 55 56 57 59 61 63 66 69 72 74 76 75 76 75
49 43 39 33 35 47 33 28 27 28 27 25 21 19 17 16 20 23 26 31 36 32 35 29 36 52 56 59 62 66 67 69 68 65 66 68 70 67 67 68 69 66 64
53 46 38 38 38 30 28 29 30 30 25 20 15 11 12 13 16 20 26 32 36 38 30 42 51 59 62 63 65 67 68 69 67 67 70 72 67 66 70 69 67 70 69
54 48 42 40 40 37 34 33 30 24 19 14 12 11 13 14 17 22 26 31 34 37 41 44 50 55 60 67 70 73 75 78 77 77 79 67 65 77 73 69 67 65 63
55 55 48 45 43 38 35 30 25 21 16 15 12 12 14 16 20 23 25 26 30 37 42 47 51 56 62 67 72 77 78 79 80 80 76 72 78 72 64 60 64 65 70
56 50 48 42 43 39 35 32 26 20 16 12 12 13 16 19 19 20 22 24 28 33 39 46 52 57 61 67 73 76 80 80 78 81 75 80 74 64 56 59 62 64 63
55 49 48 46 43 40 36 29 22 16 15 13 14 15 17 16 16 16 18 23 28 33 40 46 52 57 62 65 69 77 84 81 83 74 76 76 72 61 61 60 59 60 64
51 51 52 50 45 39 32 25 19 16 16 15 14 15 14 14 12 14 18 24 31 37 42 47 51 55 58 64 68 73 77 83 85 75 82 79 75 68 59 54 53 61 55
56 55 51 45 41 36 29 22 18 18 16 14 14 14 12 9 12 16 22 29 35 38 43 45 46 47 51 55 61 67 69 75 85 75 80 77 68 62 50 41 57 53 48
60 56 50 45 39 32 26 21 18 17 15 15 14 12 10 12 15 20 27 34 37 39 41 42 41 41 47 50 58 63 61 61 63 66 66 71 63 53 37 48 55 50 42
57 53 48 42 35 29 24 19 17 16 17 16 15 13 12 14 18 25 29 31 33 37 39 39 39 40 42 46 47 52 55 58 59 60 58 54 54 49 37 42 49 52 48
56 50 43 38 34 28 23 18 18 20 20 18 18 16 13 15 20 23 26 29 33 35 39 43 43 40 39 40 42 46 47 51 58 58 47 46 48 52 41 39 49 50 47
50 47 43 39 33 26 18 19 24 24 24 22 19 16 16 19 21 25 28 31 34 36 39 43 45 45 39 38 38 38 41 42 45 51 42 52 43 42 39 36 46 49 41
Wind_Direction_850mb
148 141 132 130 124 118 113 121 83 38 40 43 55 61 60 48 34 22 14 8 4 0 354 348 344 340 337 333 334 331 332 331 329 329 329 327 325 325 323 320 319 315 310
199 189 179 169 176 186 181 166 39 24 33 38 37 35 25 10 3 357 353 351 345 342 340 336 333 332 331 327 321 316 313 312 311 311 314 317 314 314 316 314 314 309 313
228 228 230 229 236 243 250 268 291 306 329 345 346 345 345 343 339 337 334 334 332 331 328 328 330 327 326 322 318 316 311 302 299 301 303 304 305 299 299 309 304 301 300
234 238 241 243 247 254 261 268 277 288 299 307 308 314 316 326 335 333 328 328 327 330 330 331 331 327 329 322 318 316 311 311 303 303 297 302 300 296 295 299 296 288 296
237 240 245 247 248 255 263 273 286 301 313 307 305 305 308 314 316 309 318 327 332 335 328 323 328 322 326 326 323 314 309 310 311 307 304 297 301 302 301 298 298 296 300
241 250 255 256 257 256 258 275 292 310 313 314 309 309 300 297 308 327 329 345 321 323 320 320 325 326 332 324 318 316 309 307 303 299 298 295 293 292 294 294 294 294 295
243 249 252 260 262 267 268 274 286 292 297 303 301 293 293 304 310 321 325 325 320 327 330 326 329 325 323 319 317 312 310 308 306 303 300 295 292 293 290 290 297 297 295
246 248 252 256 261 263 267 273 277 282 286 289 296 319 323 317 311 320 318 324 319 325 330 324 326 319 321 323 323 319 314 313 309 305 302 300 300 298 297 299 297 296 296
248 250 253 257 262 262 262 264 267 265 271 285 282 292 308 277 308 319 316 316 318 320 328 332 340 334 337 334 331 329 323 323 323 322 319 314 306 303 299 295 293 294 294
242 250 252 254 256 255 258 261 263 275 272 281 281 281 289 293 296 298 299 310 311 330 348 351 348 341 337 338 342 340 332 328 327 325 322 320 314 308 303 304 307 302 304
247 243 246 247 249 253 257 261 264 263 277 282 290 289 285 290 285 296 310 307 316 340 348 344 337 333 334 339 338 332 331 328 324 322 320 318 316 313 310 312 313 310 304
235 232 241 245 249 250 257 258 258 265 271 281 279 271 274 277 288 296 304 311 317 342 346 338 332 337 339 330 329 326 324 323 322 321 319 317 314 312 311 311 310 308 306
239 246 251 252 252 246 249 250 254 258 265 263 259 260 272 287 292 300 307 316 327 336 341 342 342 340 336 328 324 324 325 325 323 323 323 322 321 318 316 314 312 311 308
241 241 249 247 247 241 236 237 240 248 250 246 275 260 279 292 297 307 319 326 330 333 340 338 335 333 327 332 333 332 332 333 334 333 330 327 325 325 321 318 316 315 312
236 238 245 249 241 241 229 232 245 241 236 249 262 266 275 291 303 314 319 328 335 334 334 328 321 331 340 343 345 346 347 346 348 345 338 335 333 329 324 321 320 322 318
232 235 236 239 229 225 236 237 225 231 240 238 245 257 273 286 297 313 326 329 329 330 330 329 336 342 347 348 348 348 350 348 352 348 341 343 343 337 333 329 323 319 320
224 226 229 227 231 232 227 225 228 218 213 221 233 254 273 292 313 321 325 326 328 330 333 340 344 345 348 347 348 349 351 350 351 347 344 351 346 342 338 330 326 325 325
217 222 225 224 230 217 219 215 206 201 204 222 241 264 291 309 316 322 328 331 336 340 342 343 346 347 348 347 347 346 348 348 349 348 346 350 342 345 341 336 331 326 324
209 211 220 217 205 202 198 193 192 203 216 234 265 285 299 309 321 330 336 343 344 344 342 342 344 346 347 348 345 345 346 346 349 345 348 347 345 346 343 335 331 330 329
207 210 203 197 193 188 187 191 195 214 236 257 276 293 305 315 325 336 345 346 343 341 341 341 342 343 345 345 342 341 342 345 346 345 347 346 348 349 343 338 339 343 344
205 198 194 188 186 185 189 196 211 229 246 264 280 294 301 307 321 338 339 337 339 340 339 338 340 340 341 340 341 340 340 340 343 348 344 348 347 351 347 347 349 350 351
193 192 188 188 186 190 194 205 221 238 252 270 284 293 289 299 313 324 329 332 334 337 337 336 335 334 336 337 335 335 337 339 340 344 341 345 349 357 353 1 354 353 355
190 188 187 189 192 197 202 213 227 240 263 276 279 270 274 297 308 320 329 330 335 337 336 335 329 332 330 331 328 329 332 332 332 337 340 340 349 2 358 358 356 352 350
191 191 191 192 196 203 214 221 238 257 265 264 255 250 267 291 315 324 329 331 335 338 336 334 330 329 326 325 321 320 327 324 327 334 338 333 348 352 354 355 357 359 351
194 195 194 198 203 211 216 227 254 261 255 246 237 244 270 301 314 319 326 329 334 335 335 335 335 331 331 330 326 320 322 322 323 328 333 329 344 337 355 355 356 356 358
197 198 200 201 207 212 228 246 256 252 246 237 241 258 278 297 309 321 325 327 333 334 332 334 331 332 328 323 319 316 316 315 318 321 322 322 332 344 338 345 352 354 1